Home   Weather   Albuquerque   Past weeks

Flag for USA Past Weather in Albuquerque, New Mexico, USA — Yesterday and Last 2 Weeks

Now
37 °F

Light rain. Mostly cloudy.


Feels Like: 32 °F
Forecast: 33 / 61 °F
Wind: 7 mph from Southwest

Location: Albuquerque International Airport

Current Time: Apr 29, 2017 at 11:35:38 pm

Latest Report: Apr 29, 2017 at 10:52 pm


Visibility: 10 mi

Pressure: 30.08 "Hg (24.95 "Hg at 1510m altitude)

Humidity: 93%

Dew Point: 35 °F

Location of AlbuquerqueLocation

Past Weather in Albuquerque — Graph

°F

Albuquerque Temperature Yesterday

Maximum temperature yesterday: 52 °F (at 12:52 am)
Minimum temperature yesterday: 39 °F (at 10:52 pm)
Average temperature yesterday: 43 °F

High & Low Weather Summary for the Past Weeks

 TemperatureHumidityPressure
High81 °F (Apr 19, 4:52 pm)100% (Apr 29, 11:18 am)30.11 "Hg (Apr 29, 11:18 am)
Low32 °F (Apr 29, 11:18 am)6% (Apr 20, 7:52 pm)29.36 "Hg (Apr 27, 3:52 pm)
Average58 °F36%29.80 "Hg
* Reported Apr 14 9:52 pm — Apr 29 9:52 pm, Albuquerque, Weather by CustomWeather, © 2017

Note: Actual official high and low records may vary slightly from our data, if they occured in-between our weather recording intervals... More about our weather records

Advertising

Albuquerque Weather History for the Previous 24 Hours

Scroll right to see more
 ConditionsComfort  
Time TempWeatherWind HumidityBarometerVisibility
9:52 pm
Sat, Apr 29
38 °FMostly cloudy.6 mph90%30.06 "Hg10 mi
9:05 pm38 °FLight rain. Partly cloudy.10 mph90%30.05 "Hg10 mi
8:52 pm38 °FLight rain. Mostly cloudy.12 mph90%30.04 "Hg8 mi
7:52 pm38 °FLight rain. Passing clouds.10 mph90%30.02 "Hg10 mi
6:52 pm42 °FPartly sunny.17 mph85%29.96 "Hg10 mi
5:52 pm46 °FBroken clouds.15 mph51%29.90 "Hg10 mi
4:52 pm48 °FBroken clouds.10 mph46%29.87 "Hg10 mi
3:52 pm47 °FBroken clouds.7 mph50%29.88 "Hg10 mi
2:52 pm46 °FBroken clouds.10 mph58%29.88 "Hg10 mi
1:52 pm43 °FMostly cloudy.No wind71%29.90 "Hg10 mi
1:23 pm40 °FCloudy.5 mph83%29.95 "Hg10 mi
12:52 pm40 °FMore clouds than sun.No wind86%29.92 "Hg10 mi
11:52 am36 °FFog.No wind92%29.94 "Hg5 mi
11:27 am33 °FLight snow. Fog.No wind100%29.97 "Hg1 mi
11:18 am32 °FHeavy snow. Fog.3 mph100%29.97 "Hg0 mi
11:03 am35 °FLight snow. Fog.7 mph88%29.96 "Hg1 mi
10:52 am36 °FLight snow. Fog.7 mph85%29.93 "Hg6 mi
10:36 am36 °FLight snow. Fog.8 mph85%29.95 "Hg4 mi
9:52 am37 °FMore clouds than sun.13 mph82%29.90 "Hg10 mi
8:52 am35 °FMore clouds than sun.18 mph92%29.88 "Hg10 mi
8:29 am35 °FMore clouds than sun.17 mph88%29.89 "Hg10 mi
7:52 am35 °FLight rain. Fog.7 mph96%29.87 "Hg4 mi
7:22 am34 °FLight snow. Fog.3 mph97%29.88 "Hg2 mi
6:36 am37 °FLight rain. Fog.3 mph89%29.86 "Hg6 mi
6:17 am37 °FLight rain. Cloudy.No wind89%29.85 "Hg8 mi
5:52 am37 °FLight rain. Mostly cloudy.5 mph86%29.81 "Hg8 mi
4:52 am37 °FMostly cloudy.No wind82%29.78 "Hg10 mi
4:14 am37 °FMostly cloudy.5 mph82%29.82 "Hg10 mi
3:52 am37 °FMostly cloudy.5 mph86%29.79 "Hg10 mi
3:33 am37 °FLow clouds.9 mph93%29.83 "Hg10 mi
2:52 am37 °FMostly cloudy.5 mph93%29.77 "Hg10 mi
1:52 am37 °FLight rain. Overcast.7 mph93%29.78 "Hg9 mi
12:52 am38 °FOvercast.9 mph90%29.78 "Hg10 mi
11:52 pm
Fri, Apr 28
39 °FMostly cloudy.6 mph82%29.82 "Hg10 mi
Weather by CustomWeather, © 2017

See weather overviewHow to use our weather pages